AO-07 1 07530U 74089B 20030.47691896 -.00000027 00000-0 11615-3 0 9995 2 07530 101.7807 001.1045 0011931 272.3923 203.7397 12.53641822068576 UO-11 1 14781U 84021B 20030.04086870 .00000058 00000-0 13204-4 0 9991 2 14781 97.5972 48.8980 0007216 305.4807 54.5734 14.83138190932169 LO-19 1 20442U 90005G 20030.41890468 .00000006 00000-0 18600-4 0 9996 2 20442 098.6765 337.3253 0011289 199.4376 160.6378 14.32943609568642 HUBBLE 1 20580U 90037B 20030.43605515 .00000370 00000-0 11503-4 0 9992 2 20580 28.4686 159.0993 0002865 37.7400 40.7508 15.09330904435021 MET-2/21 1 22782U 93055A 20030.42104035 .00000075 00000-0 54204-4 0 9998 2 22782 82.5513 343.9240 0020996 265.2624 212.6924 13.83823793334086 AO-27 1 22825U 93061C 20030.42107385 -.00000028 00000-0 72856-5 0 9997 2 22825 098.9197 029.3968 0009367 064.9579 295.2574 14.30076596373947 IO-26 1 22826U 93061D 20030.44002778 -.00000020 00000-0 10225-4 0 9993 2 22826 098.9138 029.3796 0009783 054.2173 305.9916 14.30411359374171 FO-29 1 24278U 96046B 20030.37555920 .00000012 00000-0 48007-4 0 9995 2 24278 098.5661 158.5422 0350632 015.2571 345.8827 13.53095261158070 NOAA-15 1 25338U 98030A 20030.36122203 .00000007 00000-0 21736-4 0 9995 2 25338 098.7309 056.0226 0009591 310.8609 049.1739 14.25949216129155 GO-32 1 25397U 98043D 20030.43120844 -.00000017 00000-0 12074-4 0 9998 2 25397 098.7148 333.0966 0002362 095.4809 264.6639 14.23678344119776 ISS 1 25544U 98067A 20030.73111304 .00000946 00000-0 25270-4 0 9994 2 25544 51.6457 313.5305 0005499 208.7980 236.9692 15.49118347210554 NO-44 1 26931U 01043C 20030.46203045 -.00000034 00000-0 18796-4 0 9991 2 26931 067.0516 141.0757 0006621 263.0385 096.9964 14.30565648957191 SO-50 1 27607U 02058C 20030.43620356 -.00000046 00000-0 14214-4 0 9998 2 27607 064.5553 079.4042 0064913 211.3668 148.3556 14.75605785920212 CO-55 1 27844U 03031E 20030.27634025 .00000031 00000-0 33610-4 0 9997 2 27844 098.6839 040.0995 0010922 097.8288 262.4130 14.22218234860318 CO-57 1 27848U 03031J 20029.98119662 .00000016 00000-0 26978-4 0 9994 2 27848 98.6910 40.3502 0010755 109.3808 250.8533 14.21807746860151 RS-22 1 27939U 03042A 20030.36586672 .00000112 00000-0 28712-4 0 9995 2 27939 98.0689 167.2226 0014247 75.9609 284.3192 14.66832923873621 NOAA-18 1 28654U 05018A 20030.39605090 .00000046 00000-0 49841-4 0 9996 2 28654 099.0655 085.3920 0013392 261.7797 098.1856 14.12485068757280 CO-58 1 28895U 05043F 20030.37308336 .00000078 00000-0 23814-4 0 9999 2 28895 97.9869 170.8122 0016695 4.1054 356.0283 14.63732914760497 Falconsat-3 1 30776U 07006E 20030.46353805 .00002596 00000-0 71093-4 0 9991 2 30776 035.4352 088.8245 0002586 340.0666 019.9960 15.37131132715439 CO-65 1 32785U 08021C 20030.37589996 .00000161 00000-0 22977-4 0 9996 2 32785 97.5629 24.5989 0011808 230.5252 129.4922 14.88409950637259 AAUSAT2 1 32788U 08021F 20029.96752430 .00000722 00000-0 71024-4 0 9997 2 32788 097.4924 040.6726 0012329 157.3158 202.8610 14.94928279638479 DO-64 1 32789U 08021G 20030.08307988 .00001169 00000-0 81043-4 0 9995 2 32789 97.4375 77.6405 0013532 76.5736 283.7000 15.07414929640915 CO-66 1 32791U 08021J 20030.21321893 .00000352 00000-0 40941-4 0 9999 2 32791 97.5347 30.5725 0012693 200.7154 159.3552 14.90960953637711 RS-30 1 32953U 08025A 20030.24072122 .00000037 00000-0 19437-3 0 9999 2 32953 82.5043 4.4868 0019537 1.2405 358.8711 12.43094020530335 PRISM 1 33493U 09002B 20030.35456738 .00000804 00000-0 75471-4 0 9999 2 33493 098.1339 324.9923 0015733 151.5237 208.6846 14.96884674598892 NOAA-19 1 33591U 09005A 20030.46144677 -.00000010 00000-0 20142-4 0 9994 2 33591 099.1938 032.2026 0014880 104.6398 255.6423 14.12393698565514 TISAT-1 1 36799U 10035E 20030.41399092 .00000307 00000-0 36997-4 0 9993 2 36799 98.1780 195.4646 0013367 68.5769 291.6873 14.91258009518408 JUGNU 1 37839U 11058B 20030.43170267 .00000289 00000-0 12319-4 0 9999 2 37839 019.9627 045.8423 0018680 296.0215 211.0685 14.12670098429107 SRMSAT 1 37841U 11058D 20030.44121017 .00000278 00000-0 75857-5 0 9997 2 37841 19.9722 107.2311 0011808 155.8153 299.1759 14.10648408428604 AO-71 1 37854U 11061E 20030.01671551 .00000742 00000-0 45254-4 0 9994 2 37854 101.7135 049.3016 0159359 116.3847 245.3824 15.06944735450474 HRBE 1 37855U 11061F 20030.13733245 .00000779 00000-0 46387-4 0 9995 2 37855 101.7268 046.7026 0172052 128.3297 233.3523 15.05958437450231 ALMASAT-1 1 38078U 12006B 20030.27884855 .00087177 68168-5 25056-3 0 9992 2 38078 69.4185 332.1598 0097146 264.9789 246.2816 15.85439604432940 HORYU-2 1 38340U 12025D 20030.35751377 .00000108 00000-0 23728-4 0 9996 2 38340 98.3015 80.3733 0012615 122.4244 237.8187 14.75803446414449 RS-40 1 38735U 12041C 20030.47796034 .00000018 00000-0 57464-4 0 9998 2 38735 082.4759 087.3278 0018185 103.8678 256.4426 12.42580007340593 BEESAT-3 1 39135U 13015F 20030.43540707 .00000951 00000-0 55567-4 0 9993 2 39135 64.8668 30.3002 0045654 268.0157 91.5741 15.17888588374507 BEESAT-2 1 39136U 13015G 20030.42688011 .00000633 00000-0 41341-4 0 9996 2 39136 064.8706 034.8468 0030724 278.8522 080.9125 15.17300356374020 ZACUBE-1 1 39417U 13066B 20030.41015273 .00000180 00000-0 28887-4 0 9994 2 39417 097.5621 036.1999 0059258 015.3126 344.9864 14.81213492334452 TRITON-1 1 39427U 13066M 20030.42699779 .00000149 00000-0 31547-4 0 9997 2 39427 097.7070 359.2371 0114061 162.1921 198.3333 14.67934970331267 GOMX-1 1 39430U 13066Q 20030.48341023 .00000073 00000-0 22648-4 0 9991 2 39430 097.7761 337.5248 0149629 262.4698 095.9479 14.59343091329532 LO-74 1 39440U 13066AA 20030.44670292 .00000197 00000-0 34119-4 0 9994 2 39440 097.6184 020.7385 0081581 071.9499 289.0578 14.75949704332078 AO-73 1 39444U 13066AE 20030.41971553 .00000228 00000-0 34247-4 0 9996 2 39444 097.5580 038.3510 0058185 008.2080 352.0072 14.82052959332771 SPROUT 1 39770U 14029E 20030.52459017 .00000381 00000-0 48025-4 0 9995 2 39770 097.8913 137.5011 0009949 067.0225 293.2052 14.87590738308406 DUCHIFAT-1 1 40021U 14033M 20030.34779041 .00000458 00000-0 52347-4 0 9990 2 40021 97.9360 320.8080 0013694 31.2905 328.9125 14.90797807305164 NANOSATCBR1 1 40024U 14033Q 20030.36099717 .00000222 00000-0 28985-4 0 9990 2 40024 97.9229 317.6313 0013079 35.5326 324.6760 14.89983704305041 EO-79 1 40025U 14033R 20030.35955397 .00000163 00000-0 23334-4 0 9992 2 40025 97.9126 314.7238 0013413 41.8872 318.3368 14.89060728304900 DTUSAT-2 1 40030U 14033W 20030.35082674 .00000168 00000-0 24001-4 0 9994 2 40030 097.9023 312.4697 0012811 038.3341 321.8784 14.88645049304319 EO-80 1 40032U 14033Y 20030.43203009 .00000189 00000-0 26360-4 0 9995 2 40032 97.9030 312.5521 0012763 38.8286 321.3845 14.88591268304827 ANTELSAT 1 40034U 14033AA 20030.39715003 .00000163 00000-0 31308-4 0 9994 2 40034 097.7311 252.5994 0060046 087.9668 272.8416 14.74197143301394 VELOX-1 1 40057U 14034E 20030.36223386 .00000196 00000-0 34975-4 0 9994 2 40057 98.2587 163.7046 0010041 225.6705 134.3689 14.77790329301093 DAURIA DX 1 1 40071U 14037C 20030.37084339 .00000056 00000-0 14714-4 0 9991 2 40071 98.4467 201.1489 0007554 216.7923 143.2773 14.81328699300661 UKUBE-1 1 40074U 14037F 20030.42282196 .00000228 00000-0 34460-4 0 9992 2 40074 98.4505 210.4959 0003823 191.2952 168.8177 14.84182530301135 HODOYOSHI-1 1 40299U 14070B 20030.45005964 .00000422 00000-0 20386-4 0 9995 2 40299 97.3357 110.3491 0011834 331.3610 87.8601 15.23851774290647 CHUBUSAT-1 1 40300U 14070C 20030.45060654 .00000452 00000-0 22494-4 0 9990 2 40300 97.3054 103.6637 0020038 346.8372 23.8303 15.22337762290366 QSAT-EOS 1 40301U 14070D 20030.49412119 .00001037 00000-0 42185-4 0 9991 2 40301 097.3072 108.0549 0024340 323.6286 047.5267 15.26522883290732 FIREBIRD FU3 1 40377U 15003B 20030.34571044 .00001746 00000-0 70910-4 0 9992 2 40377 099.1132 062.0015 0126012 058.7128 302.6370 15.19538577276170 FIREBIRD FU4 1 40378U 15003C 20030.33135433 .00001764 00000-0 71505-4 0 9991 2 40378 99.1134 62.0740 0126204 58.6411 302.7096 15.19551831276180 GRIFEX 1 40379U 15003D 20030.30151631 .00001254 00000-0 56392-4 0 9998 2 40379 99.1189 54.7459 0134884 80.9205 280.7257 15.16029738275768 NO-84 1 40654U 15025D 20029.54651541 .00009501 00000-0 12229-3 0 8382 2 40654 54.9853 224.2483 0126358 183.9206 176.0850 15.50934394147297 DEORBITSAIL 1 40719U 15032E 20030.41428896 .00000281 00000-0 47121-4 0 9999 2 40719 097.8866 282.3484 0015315 300.4480 059.5217 14.76899420245574 NUDT-PHONESAT 1 40900U 15049B 20030.51696962 .00001426 00000-0 62528-4 0 9991 2 40900 097.4342 042.6990 0014345 110.0483 040.8160 15.23552721242031 XW-2A 1 40903U 15049E 20030.45111925 .00001385 00000-0 33782-4 0 9992 2 40903 097.3087 079.1852 0014780 052.7010 043.4436 15.42567818245045 XW-2C 1 40906U 15049H 20030.45008978 .00000170 00000-0 12335-4 0 9990 2 40906 97.4729 33.8883 0016033 131.9649 26.3435 15.15906770241199 XW-2D 1 40907U 15049J 20030.52303117 .00000585 00000-0 33725-4 0 9998 2 40907 097.4719 033.6504 0015554 128.9113 349.8731 15.16121765241226 LILACSAT-2 1 40908U 15049K 20030.52184059 .00000303 00000-0 20259-4 0 9997 2 40908 097.4860 032.1920 0017023 137.3356 342.1409 15.13944160240974 XW-2E 1 40909U 15049L 20030.49593588 .00000707 00000-0 37874-4 0 9994 2 40909 097.4618 036.8603 0014932 122.1118 029.0089 15.18161258241441 XW-2F 1 40910U 15049M 20030.39342236 .00000816 00000-0 43757-4 0 9995 2 40910 97.4658 35.8806 0016306 121.5409 344.4015 15.17673423241246 XW-2B 1 40911U 15049N 20030.50029316 .00000226 00000-0 15183-4 0 9997 2 40911 97.4732 34.3125 0015284 129.6160 349.3472 15.16046657241114 DCBB 1 40912U 15049P 20030.54137289 .00000925 00000-0 45960-4 0 9993 2 40912 097.4493 040.0118 0016484 102.3859 015.6801 15.20032474241612 TW-1C 1 40926U 15051B 20030.39393226 .00012154 00000-0 14696-3 0 9997 2 40926 97.1049 81.6026 0005160 244.3604 126.3741 15.60832228245306 TW-1A 1 40928U 15051D 20030.49605757 .00002006 00000-0 49139-4 0 9991 2 40928 97.1237 61.6588 0010125 343.2679 152.1318 15.41873821243955 IO-86 1 40931U 15052B 20029.60443767 .00000992 00000-0 49354-4 0 9999 2 40931 5.9973 252.7102 0011822 96.1773 263.9788 14.76627311234558 LQSat 1 40958U 15057A 20030.41619048 .00000020 00000-0 10692-4 0 9996 2 40958 097.8723 098.1858 0017046 234.0339 125.9288 14.73106280232043 AO-85 1 40967U 15058D 20029.53756808 .00000067 00000-0 26769-4 0 9403 2 40967 64.7726 195.6251 0174614 126.5387 235.1939 14.76060425140927 ATHENOXAT-1 1 41168U 15077C 20030.24655221 .00001753 00000-0 56618-4 0 9998 2 41168 14.9896 2.5666 0011390 350.7552 9.2559 15.14067447228219 ChubuSat-2 1 41338U 16012B 20030.44866359 .00000284 00000-0 15277-4 0 9999 2 41338 031.0026 149.9689 0013671 180.1048 179.9586 15.00236676216841 ChubuSat-3 1 41339U 16012C 20030.39220642 .00000239 00000-0 11761-4 0 9997 2 41339 31.0106 148.1361 0013289 187.5554 172.4896 15.00405622216837 Horyu-4 1 41340U 16012D 20030.42306040 .00000420 00000-0 25078-4 0 9998 2 41340 31.0047 137.1186 0013874 209.6627 150.3223 15.01404820216966 OUFTI-1 1 41458U 16025C 20030.27988439 .00000990 00000-0 54173-4 0 9993 2 41458 098.0984 133.6369 0163716 318.6415 040.2507 15.06407040206525 e-st@r-II 1 41459U 16025D 20030.35297965 .00001138 00000-0 62016-4 0 9990 2 41459 98.0972 133.2323 0164889 320.0163 38.9012 15.06003433206509 AAUSAT4 1 41460U 16025E 20030.23037723 .00001066 00000-0 56811-4 0 9999 2 41460 98.0928 134.9675 0155063 310.8279 47.9702 15.08115897206651 LO-87 1 41557U 16033B 20030.40293101 .00000993 00000-0 39390-4 0 9999 2 41557 97.4085 121.5562 0012731 214.2984 145.7435 15.27692081204548 NuSat2 1 41558U 16033C 20030.48150546 .00001162 00000-0 43073-4 0 9995 2 41558 97.4125 123.4350 0011812 212.0759 147.9764 15.29637277204643 Lapan A3 1 41603U 16040E 20030.48790470 .00000147 00000-0 99789-5 0 9998 2 41603 097.3308 088.2223 0012715 336.8182 131.2049 15.19790881200032 Swayam 1 41607U 16040J 20030.13926538 .00001129 00000-0 49651-4 0 9993 2 41607 97.3376 92.6816 0012102 323.8595 36.1824 15.23846070200202 Pratham 1 41783U 16059A 20030.43279741 .00000029 00000-0 14856-4 0 9995 2 41783 098.0378 089.6555 0034247 035.9483 324.4013 14.63034145178554 AlSat 1N 1 41789U 16059G 20030.43329053 .00000037 00000-0 15943-4 0 9990 2 41789 98.0409 92.1557 0028820 25.0818 335.1785 14.64292740178685 ScatSat 1 41790U 16059H 20030.43676099 .00000012 00000-0 13827-4 0 9999 2 41790 98.1803 74.7206 0005683 3.8225 356.3014 14.50899221177064 TY-1 1 41844U 16066D 20030.51303080 .00000605 00000-0 27374-4 0 9993 2 41844 097.4044 040.2466 0016701 111.2842 040.8343 15.24615349179095 Pegasus-1 1 41846U 16066F 20030.37915875 .00000151 00000-0 34362-4 0 9991 2 41846 098.6829 078.8367 0366037 287.2584 068.8860 14.37692977168980 CAS-2T 1 41847U 16066G 20030.39725208 .00000011 00000-0 13031-4 0 9998 2 41847 098.6762 079.3603 0364665 283.2210 072.8545 14.38036638169436 EO-88 1 42017U 17008BX 20030.43072388 .00001173 00000-0 48275-4 0 9992 2 42017 97.3778 99.9335 0007897 93.4262 266.7880 15.26094944164341 nSIGHT1 1 42726U 98067MF 20030.23762086 .00066982 00000-0 26471-3 0 9994 2 42726 51.6289 225.2148 0002096 295.3393 64.7394 15.86153189153413 CAS-4B 1 42759U 17034B 20030.49700462 .00000116 00000-0 20552-4 0 9995 2 42759 43.0193 70.4711 0012265 240.6968 260.5317 15.09729833144965 CAS-4A 1 42761U 17034D 20030.44688889 .00000119 00000-0 20716-4 0 9996 2 42761 43.0197 70.1369 0012763 241.1426 251.2203 15.09807958144951 UCLSat 1 42765U 17036A 20030.42800149 .00000975 00000-0 44087-4 0 9992 2 42765 097.3219 088.2727 0012242 148.9721 211.2242 15.23201533145418 NIUSat 1 42766U 17036B 20030.38102016 .00000712 00000-0 34618-4 0 9994 2 42766 097.3214 086.0723 0016566 143.9882 216.2474 15.21467935144545 LituanicaSAT 2 1 42768U 17036D 20030.18243507 .00001591 00000-0 69312-4 0 9990 2 42768 097.3266 087.8178 0015935 142.2878 217.9479 15.23534708144631 Aalto 1 1 42775U 17036L 20030.37779699 .00000589 00000-0 29043-4 0 9998 2 42775 097.3197 086.4190 0014927 142.9883 217.2386 15.21634034144523 URSA MAIOR 1 42776U 17036M 20030.38280617 .00000660 00000-0 32008-4 0 9992 2 42776 097.3208 086.6515 0014762 142.7886 217.4376 15.21794716144534 Max Valier Sat 1 42778U 17036P 20030.40223001 .00000679 00000-0 32326-4 0 9994 2 42778 097.3257 087.7481 0013302 145.6392 214.5708 15.22371217144576 Pegasus 1 42784U 17036V 20030.42582232 .00000874 00000-0 40128-4 0 9993 2 42784 97.3223 88.0136 0012807 150.0350 210.1623 15.22914600144612 NUDATSat 1 42787U 17036Y 20030.46430127 .00001270 00000-0 55102-4 0 9994 2 42787 097.3268 089.1462 0010945 143.1404 217.0542 15.24082299144520 SUCHAI 1 1 42788U 17036Z 20030.43195533 .00001042 00000-0 46648-4 0 9993 2 42788 097.3230 088.4864 0012393 148.6064 211.5916 15.23406704144714 SKCUBE 1 42789U 17036AA 20030.39904904 .00000964 00000-0 43541-4 0 9990 2 42789 097.3225 088.3463 0012254 148.8454 211.3512 15.23273840144627 VZLUSAT 1 1 42790U 17036AB 20030.18967920 .00001256 00000-0 54554-4 0 9997 2 42790 097.3246 088.8731 0011822 147.7448 212.4515 15.24068619144639 VENTA 1 1 42791U 17036AC 20030.30647228 .00000911 00000-0 41305-4 0 9995 2 42791 097.3223 088.3041 0011916 149.4038 210.7897 15.23269645144604 Robusta 1B 1 42792U 17036AD 20030.43543240 .00001021 00000-0 45678-4 0 9999 2 42792 097.3227 088.5911 0011834 148.9337 211.2602 15.23455002144651 D-SAT 1 42794U 17036AF 20030.34474197 .00000140 00000-0 17308-4 0 9995 2 42794 097.5119 069.7530 0127811 109.0619 252.4493 14.91209675141960 TechnoSat 1 42829U 17042E 20030.43805315 .00000196 00000-0 25172-4 0 9990 2 42829 97.5393 278.5742 0015054 33.3152 326.9011 14.91050153138575 QIKCOM-1 1 42983U 98067NF 20030.32278710 .00003434 00000-0 47229-4 0 9993 2 42983 51.6387 286.2607 0003275 246.9283 113.1365 15.60395670128553 AO-91 1 43017U 17073E 20030.27890736 .00000278 00000-0 26851-4 0 9993 2 43017 097.7271 307.8645 0258319 143.4962 218.4173 14.78780389118595 EcAMSat 1 43019U 98067NG 20030.38038352 .00006678 00000-0 74985-4 0 9998 2 43019 51.6399 276.2121 0003643 228.9051 131.1630 15.63990113211014 PICSAT 1 43132U 18004X 20030.27134767 .00001050 00000-0 46199-4 0 9997 2 43132 097.4637 102.3865 0009802 173.4734 186.6633 15.24065696113859 AO-92 1 43137U 18004AC 20030.15503513 .00000793 00000-0 35848-4 0 9990 2 43137 97.4625 102.1697 0009305 175.3145 184.8181 15.23848440113827 TianYi 2 1 43155U 18008A 20030.51857736 .00000751 00000-0 48112-4 0 9995 2 43155 097.4641 103.0544 0015841 266.4072 151.7082 15.11435336111935 Zhou Enlai 1 43156U 18008B 20030.51322947 .00000411 00000-0 28400-4 0 9998 2 43156 097.4688 102.9130 0013031 265.1823 191.6213 15.10955392111897 TianYi 6 1 43158U 18008D 20030.47313991 .00000202 00000-0 16043-4 0 9992 2 43158 097.4651 102.1031 0012323 263.6116 105.8607 15.10507745111846 S-Net G 1 43186U 18014G 20030.39687092 -.00000217 00000-0 -13884-4 0 9995 2 43186 097.7020 300.4315 0010599 336.8670 023.2073 14.96742603108897 S-Net H 1 43187U 18014H 20030.39668682 -.00000223 00000-0 -14462-4 0 9990 2 43187 097.7018 300.4138 0010595 336.7956 023.2786 14.96742636108897 S-Net J 1 43188U 18014J 20030.39653127 -.00000231 00000-0 -15112-4 0 9991 2 43188 97.7021 300.4380 0010585 336.9136 23.1609 14.96742347108894 S-Net K 1 43189U 18014K 20030.46375769 -.00000209 00000-0 -13164-4 0 9993 2 43189 97.7017 300.4760 0010583 336.5274 23.5463 14.96741778107459 FMN 1 1 43192U 18015A 20030.51304159 .00001545 00000-0 64588-4 0 9997 2 43192 097.4237 160.9204 0015065 213.5120 210.2460 15.25047923110720 Shaonian Xing 1 43199U 18015H 20030.46315678 .00001204 00000-0 50475-4 0 9998 2 43199 097.4020 159.4954 0015645 226.0789 205.4360 15.25356523110775 1KUNS-PF 1 43466U 98067NP 20030.34224812 .00044949 00000-0 25844-3 0 9990 2 43466 51.6315 260.6630 0001234 181.3034 178.7964 15.78267595 98395 UBAKUSAT 1 43467U 98067NQ 20030.26648792 .00018083 00000-0 15882-3 0 9990 2 43467 51.6341 274.5071 0001973 179.2195 180.8806 15.68885667 98217 Irazu 1 43468U 98067NR 20030.02313120 .00148413 19500-4 42081-3 0 9990 2 43468 51.6297 248.5957 0003820 207.0399 153.0410 15.93088609198517 EnduroSat One 1 43551U 98067NZ 20030.16459537 .00026159 00000-0 20894-3 0 9992 2 43551 051.6336 276.0680 0003350 272.4628 087.5986 15.70925665088415 EQUISat 1 43552U 98067PA 20030.23557443 .00018115 00000-0 16619-3 0 9999 2 43552 051.6363 280.3707 0003963 272.6076 087.4467 15.67806652088326 UiTMSat 1 1 43589U 98067PD 20030.10526263 .00021970 00000-0 19185-3 0 9995 2 43589 51.6332 280.8760 0003159 280.5984 79.4657 15.68878092 84044 Maya 1 1 43590U 98067PE 20029.97099878 .00021491 00000-0 18779-3 0 9993 2 43590 051.6334 281.4878 0003240 281.2411 078.8221 15.68876619083951 Bhutan 1 1 43591U 98067PF 20030.39846300 .00021548 00000-0 18755-3 0 9999 2 43591 51.6345 279.1393 0003354 283.7636 76.2988 15.68971323 84021 SiriusSat 1 1 43595U 98067PG 20030.40682521 .00018443 00000-0 17113-3 0 9995 2 43595 051.6336 282.1569 0002232 223.7442 136.3378 15.67513822083167 SiriusSat 2 1 43596U 98067PH 20030.26855714 .00018922 00000-0 17622-3 0 9993 2 43596 051.6346 283.5451 0002612 225.0968 134.9816 15.67401550083136 Tanusha-3 1 43597U 98067PJ 20030.28241620 .00029803 00000-0 23031-3 0 9992 2 43597 051.6318 277.5075 0001932 230.6239 129.4588 15.71642147083216 SurfSat 1 43614U 18070B 20030.43920977 .00002052 00000-0 54000-4 0 9992 2 43614 093.0337 097.0981 0016869 146.4923 213.7402 15.38521185077101 CP-7 DAVE 1 43615U 18070C 20030.19891160 .00001990 00000-0 52544-4 0 9998 2 43615 093.0340 096.9953 0016989 146.8913 213.3408 15.38408248077060 ELFIN-B 1 43616U 18070D 20030.34741417 .00003194 00000-0 81404-4 0 9990 2 43616 093.0297 096.9680 0017577 149.0894 211.1399 15.39445869077118 ELFIN-A 1 43617U 18070E 20030.45978095 .00003321 00000-0 84302-4 0 9999 2 43617 093.0353 097.4105 0017006 145.3767 214.8598 15.39578662077136 STARS-Me Mother 1 43640U 98067PQ 20029.30746318 .00009847 00000-0 11487-3 0 9994 2 43640 51.6363 297.3900 0004360 211.0699 149.0038 15.62347832 74797 CubeBel 1 1 43666U 18083E 20030.49374484 .00000623 00000-0 33928-4 0 9993 2 43666 097.5027 058.2459 0016394 120.5778 345.5002 15.17977201069535 Changshagaoxin 1 43669U 18083H 20030.44918649 .00000617 00000-0 34492-4 0 9998 2 43669 97.4900 56.8189 0012410 114.0221 246.2313 15.17081459 69451 Ten-Koh 1 43677U 18084G 20030.43540123 .00000011 00000-0 70061-5 0 9996 2 43677 097.8682 147.9826 0014675 255.7014 104.2574 14.90240868068237 PO-101 1 43678U 18084H 20030.47909608 -.00000086 00000-0 -28884-5 0 9998 2 43678 097.8691 149.0466 0008452 278.4182 081.6097 14.91599192068309 IRVINE 01 1 43693U 18088D 20030.42330042 .00002187 00000-0 92837-4 0 9994 2 43693 085.0376 168.9878 0020021 084.3237 276.0288 15.22264441067697 QO-100 1 43700U 18090A 20030.43452201 .00000147 00000-0 00000-0 0 9990 2 43700 000.0162 090.2878 0002242 247.9184 333.1618 01.00272150004315 Reaktor Hello World 1 43743U 18096AA 20030.47934878 .00000866 00000-0 35340-4 0 9999 2 43743 097.4372 104.9852 0016310 257.5594 198.0969 15.27074372065182 MinXSS-2 1 43758U 18099A 20030.17214717 -.00000053 00000-0 43127-6 0 9991 2 43758 97.7225 104.2912 0014267 297.1936 62.7830 14.95564280 63130 AO-95 1 43770U 18099N 20030.48743924 .00000521 00000-0 53014-4 0 9999 2 43770 97.7222 104.1917 0013235 304.0501 55.9462 14.94899616 63155 RANGE-B 1 43772U 18099Q 20030.45697308 .00000088 00000-0 13256-4 0 9994 2 43772 097.7281 104.5203 0012850 289.7205 070.2630 14.95054459063141 RANGE-A 1 43773U 18099R 20030.47716721 .00000523 00000-0 53127-4 0 9993 2 43773 97.7166 103.9246 0012101 289.9673 70.0244 14.94900164 63145 MOVE-II 1 43780U 18099Y 20030.27164158 .00000600 00000-0 59714-4 0 9994 2 43780 097.7216 104.1067 0012198 301.6961 058.3070 14.95261745063110 SNUSat 2 1 43782U 18099AA 20030.47390703 .00000539 00000-0 54236-4 0 9990 2 43782 97.7216 104.3400 0011309 289.4742 70.5257 14.95172007 63157 SnugLite 1 43784U 18099AC 20030.45097152 -.00000170 00000-0 -10139-4 0 9999 2 43784 097.7182 104.1836 0013850 298.2045 061.7776 14.95262966063162 ITASat 1 1 43786U 18099AE 20030.44951473 -.00000247 00000-0 -17166-4 0 9997 2 43786 097.7235 104.4740 0013947 297.2551 062.7248 14.95250271063169 EAGLET 1 1 43790U 18099AJ 20030.47685102 .00000602 00000-0 59326-4 0 9995 2 43790 97.7225 104.6936 0012174 302.4864 57.5180 14.95627279 62879 ESEO 1 43792U 18099AL 20030.47902130 .00000476 00000-0 48119-4 0 9997 2 43792 097.7201 104.5830 0011902 299.4264 060.5768 14.95563498062939 CSIM 1 43793U 18099AM 20030.15905835 .00000617 00000-0 60263-4 0 9999 2 43793 97.7186 104.1839 0011530 297.1724 62.8321 14.95909300 62868 Astrocast 0.1 1 43798U 18099AS 20030.48235449 .00000651 00000-0 63496-4 0 9996 2 43798 097.7216 104.7723 0010877 280.1206 079.8787 14.95811009063172 JO-97 1 43803U 18099AX 20030.47961656 .00000669 00000-0 65745-4 0 9996 2 43803 97.7195 104.3578 0013732 297.4985 62.4840 14.95408582 63162 Suomi 100 1 43804U 18099AY 20030.27886297 .00000642 00000-0 63276-4 0 9990 2 43804 097.7193 104.1535 0013813 298.3967 061.5861 14.95401642063143 Al Farabi 2 1 43805U 18099AZ 20030.46390672 .00000298 00000-0 32126-4 0 9996 2 43805 97.7196 104.3852 0013960 297.3862 62.5938 14.95495183 63179 PWSat 2 1 43814U 18099BJ 20030.44155393 .00014338 00000-0 97851-3 0 9998 2 43814 097.7812 109.0990 0006433 249.3452 110.7089 15.06297865062754 CHOMPTT 1 43855U 18104G 20030.39343211 .00000629 00000-0 25126-4 0 9997 2 43855 085.0381 267.1827 0016169 197.8737 162.1994 15.22725994062365 ISAT 1 43879U 18111D 20030.45903342 -.00000169 00000-0 -98338-5 0 9992 2 43879 97.7104 300.0657 0013206 355.4598 4.6501 14.96137935 57706 UWE-4 1 43880U 18111E 20030.46137384 -.00000154 00000-0 -84315-5 0 9994 2 43880 097.7114 300.2668 0012356 356.4801 003.6332 14.96375276059701 Sparrow 1 43881U 18111F 20030.24822656 -.00000050 00000-0 75907-6 0 9996 2 43881 097.7124 300.1074 0012557 356.7424 003.3714 14.96431755059672 Lume 1 1 43908U 18111AJ 20030.45831223 .00000888 00000-0 38527-4 0 9992 2 43908 097.2778 294.4011 0019740 275.2251 084.6734 15.24752250060845 FO-98 1 43933U 19003B 20030.40790485 .00000421 00000-0 21394-4 0 9997 2 43933 097.2524 085.3217 0018432 016.8854 353.8931 15.21912225057384 FO-99 1 43937U 19003F 20030.26181164 .00000869 00000-0 38445-4 0 9994 2 43937 97.2479 86.0424 0024249 0.8265 67.0585 15.24045447 57438 Delphini 1 1 44030U 98067PW 20030.47205433 .00014933 00000-0 17657-3 0 9993 2 44030 051.6359 297.6791 0003103 268.3532 091.7106 15.61519509056769 MYSat 1 1 44045U 18092F 20030.31342436 .00001344 00000-0 48734-4 0 9990 2 44045 051.6468 357.5180 0012032 176.6397 183.4671 15.35935605053904 AstroCast 0.2 1 44083U 19018F 20030.39158025 .00000498 00000-0 25283-4 0 9991 2 44083 97.4409 93.2300 0011805 302.8620 57.1479 15.21406367 46230 AISTechSat 3 1 44103U 19018AB 20030.27855245 .00000594 00000-0 28309-4 0 9998 2 44103 97.4284 93.2036 0012402 322.5738 103.9536 15.22939911 46256 AISat 1 1 44104U 19018AC 20030.14700258 .00000573 00000-0 21036-4 0 9995 2 44104 97.4819 98.8381 0058161 349.0278 10.9689 15.30813190 46491 Raavana-1 1 44329U 98067QE 20030.13207962 .00008726 00000-0 13369-3 0 9995 2 44329 051.6405 311.2172 0006394 194.2673 165.8139 15.55183278035305 Uguisu 1 44330U 98067QF 20030.13850343 .00008486 00000-0 13048-3 0 9991 2 44330 051.6404 311.2584 0006357 193.0797 167.0030 15.55126577035286 NepaliSat-1 1 44331U 98067QG 20029.99859657 .00008689 00000-0 13300-3 0 9997 2 44331 051.6405 311.8259 0006427 195.3370 164.7427 15.55212961035279 Prox-1 1 44339U 19036A 20030.32080503 .00000709 00000-0 11906-3 0 9994 2 44339 024.0030 267.2285 0010361 072.4771 287.6884 14.52818824031870 OBJECT H 1 44346U 19036H 20030.14835736 .02324182 30110-2 63851-2 0 9996 2 44346 28.5358 190.5642 0081916 317.4065 42.3314 15.87764470 33093 OBJECT J 1 44347U 19036J 20030.16328101 .00019979 00000-0 28062-3 0 9994 2 44347 28.5325 206.2319 0337861 279.0106 77.2367 15.09757897 32943 OBJECT K 1 44348U 19036K 20030.51449402 .00005811 00000-0 84559-4 0 9996 2 44348 028.5196 212.8120 0377479 268.3766 087.3614 15.00003496032908 Armadillo 1 44352U 19036P 20030.53120252 .00007947 00000-0 11786-3 0 9995 2 44352 28.5342 211.2407 0369558 270.5546 85.2761 15.01627614 32867 NO-104 1 44354U 19036R 20029.53644878 .00006923 00000-0 10078-3 0 9996 2 44354 028.5322 217.7044 0374424 259.6454 096.1731 15.00865706032761 NO-103 1 44355U 19036S 20030.20321450 .00013449 00000-0 19607-3 0 9999 2 44355 028.5324 210.4551 0362135 271.4765 084.4379 15.03936035032899 Oculus-ASR 1 44356U 19036T 20030.50754775 .00024995 00000-0 31620-3 0 9990 2 44356 028.5270 198.0798 0328728 291.5801 065.0098 15.13851413033046 CP9 1 44360U 19036X 20030.15707818 .00018635 -61411-5 21766-3 0 9995 2 44360 028.5179 204.7901 0354992 281.1417 074.9508 15.08384219032829 Move-IIb 1 44398U 19038N 20030.45890985 .00000873 00000-0 54352-4 0 9993 2 44398 097.5189 353.6484 0023844 245.1513 114.7237 15.12010605031576 SONATE 1 44400U 19038Q 20030.46729567 .00000303 00000-0 21477-4 0 9995 2 44400 097.5214 353.6750 0023833 243.1179 116.7615 15.11815432031571 BeeSat 9 1 44412U 19038AC 20030.44270277 .00000739 00000-0 46554-4 0 9991 2 44412 097.5205 353.6938 0021287 249.1550 110.7401 15.12061509031264 JAISAT-1 1 44419U 19038F 20030.44116993 .00000715 00000-0 44621-4 0 9999 2 44419 097.5206 353.8517 0020166 248.6020 111.3060 15.12544107031581 LightSail-2 1 44420U 19036AC 20030.30163142 .00005538 00000-0 12323-2 0 9992 2 44420 24.0100 266.1544 0010481 47.5901 312.5522 14.54269870 30022 Taurus 1 1 44530U 19059C 20030.45269892 -.00000225 00000-0 -51098-4 0 9998 2 44530 98.5779 110.1953 0016388 206.1623 153.8754 14.45254981 20265 MO-106 1 44830U 19084G 20030.33504102 .00027835 00000-0 25048-3 0 9991 2 44830 96.9963 259.1926 0039987 49.3420 311.1306 15.67105484 8593 TRSI-Sat 1 44831U 19084H 20028.41851141 .00021280 00000-0 19264-3 0 9997 2 44831 96.9971 257.2944 0040123 55.4451 305.0587 15.67001470 8300 MO-105 1 44832U 19084J 20030.26480648 .00028484 00000-0 25397-3 0 9991 2 44832 096.9968 259.1418 0039341 048.9569 311.5082 15.67360115008587 Duchifat 3 1 44854U 19089C 20030.47849759 .00000223 00000-0 24574-4 0 9993 2 44854 36.9657 199.5991 0009056 6.8016 353.2850 14.98957450 7439 OPS-SAT 1 44878U 19092F 20030.30399907 -.00000066 00000-0 00000 0 0 9999 2 44878 97.4632 215.9798 0015400 117.6175 242.6678 15.15225536 6469 FloripaSat 1 1 44885U 19093G 20030.44039323 .00000181 00000-0 29583-4 0 9995 2 44885 97.9724 107.3750 0015870 136.4761 223.7707 14.81959584 6111 /EX
